RADUGA 2 [-]

Last updated on Jan. 18, 2020, 4:38 a.m. UTC

1 09416U 76092A   20016.86091101  .00000018  00000-0  00000+0 0  9997
2 09416   9.2701 302.2538 0029860 334.0022 212.9220  1.00269450105846
UTC
Height (km)
Latitude
Longitude
Inclination
Orbital Period
UTC large
Height (km)
Speed (km/s)
/
Latitude / Longitude
Inclination (degrees)
Orbital Period (minutes)
Azimuth
Elevation
Range (km)
Doppler Factor
iOS Compass Heading
iOS Angle

Next 30 passes for location: Hong Kong

Rise time Rise Azimuth (degrees) Set time Set Azimuth (degrees) Duration Max altitude (degrees)

No matching passes for this satellites